TimePDT,TemperatureF,Dew PointF,Humidity,Sea Level PressureIn,VisibilityMPH,Wind Direction,Wind SpeedMPH,Gust SpeedMPH,PrecipitationIn,Events,Conditions,WindDirDegrees,DateUTC
12:56 AM,75.9,66.0,71,29.80,10.0,Calm,Calm,-,N/A,,Clear,0,2013-09-11 07:56:00
1:56 AM,75.9,64.9,69,29.79,10.0,Calm,Calm,-,N/A,,Clear,0,2013-09-11 08:56:00
2:56 AM,75.9,66.0,71,29.80,10.0,WNW,3.5,-,N/A,,Clear,290,2013-09-11 09:56:00
3:56 AM,75.9,66.9,74,29.79,10.0,Calm,Calm,-,N/A,,Clear,0,2013-09-11 10:56:00
4:56 AM,75.9,66.9,74,29.80,10.0,Calm,Calm,-,N/A,,Clear,0,2013-09-11 11:56:00
5:56 AM,75.9,66.0,71,29.82,10.0,Calm,Calm,-,N/A,,Partly Cloudy,0,2013-09-11 12:56:00
6:56 AM,75.9,66.9,74,29.85,10.0,North,3.5,-,N/A,,Partly Cloudy,360,2013-09-11 13:56:00
7:56 AM,75.9,66.9,74,29.86,10.0,Calm,Calm,-,0.00,,Mostly Cloudy,0,2013-09-11 14:56:00
8:56 AM,78.1,64.9,64,29.87,10.0,Calm,Calm,-,N/A,,Partly Cloudy,0,2013-09-11 15:56:00
9:56 AM,81.0,64.9,58,29.87,10.0,East,3.5,-,N/A,,Clear,90,2013-09-11 16:56:00
10:56 AM,84.9,64.9,51,29.86,10.0,SE,6.9,-,N/A,,Clear,140,2013-09-11 17:56:00
11:56 AM,87.1,64.9,48,29.85,10.0,SE,3.5,-,N/A,,Clear,140,2013-09-11 18:56:00
12:56 PM,91.0,64.0,41,29.83,10.0,Variable,3.5,-,N/A,,Clear,0,2013-09-11 19:56:00
1:56 PM,91.9,63.0,38,29.81,10.0,SE,5.8,-,N/A,,Clear,140,2013-09-11 20:56:00
2:56 PM,93.9,61.0,33,29.79,10.0,ESE,5.8,-,N/A,,Clear,120,2013-09-11 21:56:00
3:56 PM,93.9,59.0,31,29.77,10.0,East,8.1,-,N/A,,Clear,100,2013-09-11 22:56:00
4:56 PM,93.9,57.9,30,29.76,10.0,NE,4.6,-,N/A,,Clear,50,2013-09-11 23:56:00
5:56 PM,93.0,55.0,28,29.75,10.0,East,8.1,-,N/A,,Clear,80,2013-09-12 00:56:00
6:56 PM,89.1,62.1,40,29.76,10.0,NNE,9.2,-,N/A,,Clear,20,2013-09-12 01:56:00
7:56 PM,86.0,63.0,46,29.77,10.0,North,9.2,-,N/A,,Clear,360,2013-09-12 02:56:00
8:56 PM,84.0,61.0,46,29.82,10.0,North,20.7,25.3,N/A,,Clear,10,2013-09-12 03:56:00
9:56 PM,82.0,60.1,47,29.83,10.0,North,18.4,-,N/A,,Clear,360,2013-09-12 04:56:00
10:56 PM,79.0,60.1,52,29.83,10.0,NNW,11.5,-,N/A,,Clear,340,2013-09-12 05:56:00
11:56 PM,80.1,60.1,50,29.82,10.0,North,8.1,-,N/A,,Clear,10,2013-09-12 06:56:00